Meteo Giornale » Osservazioni meteo Italia » Napoli-Capodichino

ore: 09:20 - Osservazioni Meteo Napoli-Capodichino
Lat. 40° 51' N Lon. 14° 18' E Alt. 88 metri s.l.m.

molto_nuvoloso Europe/Rome

14 °C

Molto Nuvoloso

Temp. 24 Ore

10 °C

15 °C

Ovest/Sud-Ovest

42.6 Km/h

Dew point 10 °C

Umidità 76 %

Visibilità  10 Km

Il sole sorge alle ore 07:22

Il sole tramonta alle ore 17:03

Data e Ora Cielo e Fenomeni T °C DP °C Um. % Pres. hPa Vis. km Vento km/h
Oggi h: 09:20 molto_nuvoloso Molto Nuvoloso 14 10 76 1006 10 O/SO 42.6
Oggi h: 08:50 molto_nuvoloso Molto Nuvoloso 15 10 72 1006 10 O/SO 35.2
Oggi h: 08:20 molto_nuvoloso Molto Nuvoloso 14 9 71 1007 10 O/SO 22.2
Oggi h: 07:50 molto_nuvoloso Molto Nuvoloso 15 9 67 1007 10 O/SO 29.6
Oggi h: 07:20 molto_nuvoloso Molto Nuvoloso 14 9 71 1007 10 O/SO 33.3
Oggi h: 06:50 nuvoloso Nuvoloso 14 9 71 1007 10 O/SO 22.2
Oggi h: 06:20 molto_nuvoloso Molto Nuvoloso 14 9 71 1007 10 O/SO 29.6
Oggi h: 05:50 molto_nuvoloso Molto Nuvoloso 14 9 71 1008 7 SO 24
Oggi h: 05:20 molto_nuvoloso Molto Nuvoloso 14 9 71 1008 7 O/SO 25.9
Oggi h: 04:50 molto_nuvoloso Molto Nuvoloso 14 10 76 1008 7 SO 16.7
Oggi h: 04:20 coperto_pioggia Pioggia Debole 14 10 76 1009 7 SO 22.2
Oggi h: 03:50 coperto_pioggia Pioggia Debole 14 11 82 1009 7 SO 18.5
Oggi h: 03:20 coperto_pioggia Pioggia Debole 13 10 81 1010 7 SO 22.2
Oggi h: 02:50 coperto_pioggia Pioggia Debole 13 11 87 1010 7 SO 20.3
Oggi h: 02:20 coperto_pioggia Pioggia Debole 13 11 87 1011 7 S/SO 13
Oggi h: 01:50 coperto_pioggia Pioggia Debole 13 10 81 1011 6 SO 16.7
Oggi h: 01:20 coperto_pioggia Pioggia Debole 13 10 81 1011 6 SO 13
Oggi h: 00:50 coperto_pioggia Pioggia Debole 14 10 76 1012 8 O/SO 22.2
Oggi h: 00:20 coperto_pioggia Pioggia Debole 13 10 81 1012 8 SO 20.3
Ieri h: 23:50 coperto_pioggia Pioggia Debole 13 10 81 1012 8 SO 16.7
Ieri h: 23:20 nuvoloso Nuvoloso 14 10 76 1013 10 SO 22.2
Ieri h: 22:50 molto_nuvoloso Molto Nuvoloso 14 9 71 1013 10 SO 25.9
Ieri h: 22:20 molto_nuvoloso Molto Nuvoloso 14 9 71 1013 10 SO 24
Ieri h: 21:50 molto_nuvoloso Molto Nuvoloso 14 9 71 1013 10 SO 24
Ieri h: 21:20 molto_nuvoloso Molto Nuvoloso 14 9 71 1014 10 SO 22.2
Ieri h: 20:50 coperto_pioggia Pioviggine Leggera 13 9 76 1014 10 SO 20.3
Ieri h: 20:20 molto_nuvoloso Molto Nuvoloso 14 9 71 1014 10 SO 18.5
Ieri h: 19:50 molto_nuvoloso Molto Nuvoloso 14 9 71 1014 10 SO 20.3
Ieri h: 19:20 molto_nuvoloso Molto Nuvoloso 13 8 71 1014 10 SO 16.7
Ieri h: 18:50 coperto_pioggia Pioviggine Leggera 13 8 71 1014 8 SO 14.8
Ieri h: 18:20 coperto_pioggia Pioviggine Leggera 13 9 76 1014 8 SO 16.7
Ieri h: 17:50 coperto_pioggia Pioggia Debole 12 9 81 1015 8 S/SO 9.3
Ieri h: 17:20 coperto_pioggia Pioggia Debole 12 9 81 1015 8 SO 11.1
Ieri h: 16:50 coperto_pioggia Pioggia Debole 12 9 81 1015 8 N 5.5
Ieri h: 16:20 molto_nuvoloso Molto Nuvoloso 12 9 81 1015 8 SO 14.8
Ieri h: 15:50 coperto_pioggia Pioviggine Leggera 12 9 81 1015 8 O/SO 24
Ieri h: 15:20 coperto_pioggia Pioviggine Leggera 12 9 81 1015 6 SO 14.8
Ieri h: 14:50 coperto_pioggia Pioggia 11 9 87 1016 6 SO 14.8
Ieri h: 14:20 coperto_pioggia Pioggia 12 8 76 1016 6 O/SO 20.3
Ieri h: 13:50 molto_nuvoloso Molto Nuvoloso 12 8 76 1016 8 O 22.2
Ieri h: 13:20 coperto_pioggia Pioggia Debole 12 9 81 1017 7 O/SO 27.8
Ieri h: 12:50 molto_nuvoloso Molto Nuvoloso 13 9 76 1017 10 O/SO 27.8
Ieri h: 12:20 molto_nuvoloso Molto Nuvoloso 13 8 71 1017 10 O/SO 25.9
Ieri h: 11:50 molto_nuvoloso Molto Nuvoloso 13 8 71 1018 10 O/SO 27.8
Ieri h: 11:20 molto_nuvoloso Molto Nuvoloso 12 7 71 1018 8 O/SO 24
Ieri h: 10:50 molto_nuvoloso Molto Nuvoloso 12 8 76 1019 10 O/SO 22.2
Ieri h: 10:20 molto_nuvoloso Molto Nuvoloso 12 8 76 1019 10 O/SO 13
Ieri h: 09:50 molto_nuvoloso Molto Nuvoloso 12 8 76 1019 10 O/SO 14.8
Ieri h: 09:20 coperto_pioggia Pioviggine 11 9 87 1019 8 O 11.1
Ieri h: 08:50 nuvoloso Nuvoloso 10 9 93 1018 10 N 5.5